Theta_e
333 333 334 337 341 343 343 343 343 342 341 341 343 344 344 344 343 343 342 342 341 340 338 338 338 337 336 338 339 339 339 339 339 339 339 340 340 339 339 340 340 340 340 341 341 340 340 336 328 325 323 320 320 323 329 334 336 337 338 338 338 339 340 340 341 338 336 337 338 338 340 340 340 338 336 334 330 328 329 331 334 337 339 339 340
329 333 333 335 341 342 342 342 342 342 341 341 343 343 344 344 343 342 341 341 341 339 338 337 338 337 335 337 339 339 339 339 339 339 339 339 339 339 339 340 340 340 340 339 340 340 340 335 327 325 324 323 321 320 323 327 332 335 336 336 337 338 339 340 340 338 335 335 335 336 338 338 338 336 334 332 327 325 325 326 326 331 337 338 339
328 334 333 334 339 342 341 342 343 342 341 341 343 342 343 344 343 342 341 341 340 339 338 337 338 337 335 336 338 339 338 338 338 338 338 338 338 337 338 339 338 338 338 339 339 340 340 333 328 327 325 325 324 322 322 323 325 330 333 334 335 336 337 339 339 338 336 334 333 333 335 336 337 335 331 328 325 323 322 322 321 325 333 336 338
331 334 333 333 337 342 341 341 343 341 341 342 343 342 342 343 343 342 341 340 340 339 339 339 338 336 336 337 337 338 338 337 336 336 336 336 336 336 337 337 337 338 338 339 339 340 339 335 331 328 326 326 326 325 325 324 323 325 328 330 332 335 336 337 337 337 337 336 335 335 334 333 333 331 329 327 324 322 320 320 319 321 327 332 336
332 335 332 332 334 340 341 341 343 341 341 342 343 342 342 342 343 342 341 341 341 339 339 339 337 334 334 337 338 337 338 337 337 336 336 335 335 335 336 337 337 338 338 339 339 339 339 337 334 331 328 326 325 324 325 325 323 322 323 325 328 332 336 337 337 336 335 336 337 337 334 331 330 329 328 328 326 324 323 323 321 320 322 327 335
333 336 333 333 333 338 340 341 342 342 341 342 342 342 342 343 343 342 342 341 341 340 340 339 336 333 331 335 338 337 337 337 337 336 336 335 333 334 335 336 337 337 338 339 338 339 338 336 335 333 330 326 325 325 326 327 326 322 319 322 325 326 332 336 337 336 333 333 336 337 335 334 335 333 332 331 331 331 330 328 326 324 323 323 328
333 336 335 334 333 335 339 341 341 342 342 342 342 342 343 342 342 342 342 342 341 340 341 338 335 336 333 333 336 336 337 336 336 335 334 334 332 332 333 335 337 337 338 339 338 338 336 334 333 332 330 328 326 325 326 327 328 325 317 317 323 325 326 331 335 334 331 333 336 337 336 336 337 337 337 336 335 336 336 332 330 327 325 323 322
333 336 336 334 332 333 336 340 341 341 342 341 341 342 342 342 342 342 342 341 341 340 340 337 336 337 335 334 334 334 335 334 333 334 334 333 331 330 331 334 336 337 338 338 338 337 335 334 332 331 330 329 328 327 327 327 328 324 314 308 315 324 325 325 329 330 331 334 337 337 336 336 336 336 337 338 337 337 336 333 332 331 328 327 325
333 335 336 335 333 332 335 338 340 341 341 341 341 342 341 341 342 341 341 340 340 340 339 337 337 337 336 336 336 335 335 334 334 335 336 333 332 331 330 334 336 336 338 338 337 336 335 333 331 330 329 328 328 329 330 328 322 313 306 301 305 317 325 325 325 327 331 335 337 336 335 335 334 335 336 338 338 336 335 333 333 332 331 331 330
332 335 335 336 334 332 333 336 338 340 340 340 340 341 341 340 341 340 340 340 339 339 338 337 338 337 337 337 337 336 336 336 336 336 336 334 333 332 332 334 336 336 337 337 336 335 333 331 330 330 326 322 324 328 327 319 310 303 301 300 301 309 318 324 325 326 330 334 335 335 335 334 333 334 336 337 336 334 333 332 331 332 332 332 332
332 334 335 335 334 333 332 334 337 338 339 339 340 340 340 340 339 340 339 339 338 338 337 337 338 337 337 337 337 336 336 337 337 337 336 334 333 333 333 335 335 336 337 336 335 333 332 331 330 329 323 316 316 319 315 305 301 300 300 300 300 303 312 319 323 325 328 332 333 334 335 334 333 334 337 336 334 332 331 331 331 333 333 333 332
333 334 335 336 334 333 332 333 335 337 338 338 339 339 340 339 338 339 339 338 337 337 336 336 337 337 338 337 337 336 337 338 337 337 336 334 333 334 334 335 335 336 336 335 334 332 331 330 329 327 323 317 307 304 302 299 300 300 300 300 299 301 308 316 321 325 327 330 332 334 334 333 333 334 336 336 334 333 332 331 331 333 335 334 333
333 335 335 336 336 335 332 333 333 335 337 338 339 338 339 339 338 339 338 338 337 337 336 335 336 337 338 336 336 336 337 338 338 337 336 334 333 333 334 336 336 335 335 334 333 332 331 329 329 327 326 323 305 298 300 299 300 299 300 300 300 301 307 316 320 324 327 329 331 332 333 333 333 334 335 335 334 334 332 331 330 332 335 334 333
332 334 336 337 337 336 333 333 333 334 335 337 338 338 339 338 338 338 338 337 336 338 336 334 335 337 337 336 334 336 337 337 338 337 337 334 333 334 334 335 334 333 333 333 332 332 331 329 330 328 329 326 305 298 300 298 299 299 299 300 300 301 306 315 320 324 327 329 331 332 333 333 333 333 333 333 332 332 331 330 331 332 333 335 334
331 333 335 338 338 337 335 334 333 334 335 337 338 338 338 337 337 337 337 337 336 337 337 334 334 336 337 336 333 335 336 336 337 337 337 335 333 333 333 332 331 332 331 331 331 330 330 329 329 328 328 322 303 298 299 298 299 299 300 299 300 300 303 312 319 323 327 330 331 332 332 332 332 332 332 331 330 330 329 329 330 332 333 334 334
331 332 335 338 339 338 336 334 334 335 337 338 338 337 337 337 337 336 336 336 335 336 336 335 334 335 336 335 333 335 336 335 337 337 337 336 334 333 332 332 331 331 330 330 330 328 329 328 328 328 324 312 299 298 298 299 299 299 300 300 300 300 301 306 314 320 324 327 330 332 332 332 331 331 330 328 328 327 327 328 328 330 332 332 332
332 333 335 337 338 338 336 335 334 336 337 338 338 337 337 337 337 336 336 335 335 335 336 336 335 335 335 333 333 335 336 336 337 337 337 337 335 333 332 332 332 331 331 331 329 328 328 327 327 327 323 306 297 299 298 299 299 299 300 300 301 301 301 302 306 313 319 324 327 329 330 330 330 329 328 327 327 325 325 327 327 328 329 330 330
332 335 336 336 337 338 338 336 334 335 337 338 338 338 337 337 337 336 336 336 334 334 335 336 335 335 334 333 333 334 336 337 337 337 337 337 336 334 334 333 332 332 331 331 328 327 327 327 326 326 324 309 298 298 298 299 300 300 300 300 301 301 301 301 303 307 312 319 323 327 328 329 329 328 327 326 326 324 323 323 324 325 327 328 329
330 334 335 336 336 337 338 338 336 334 335 337 338 338 338 337 337 337 337 336 335 334 334 335 335 335 334 333 334 334 335 337 338 338 337 337 336 335 334 333 332 332 331 330 328 326 326 326 325 324 324 311 298 298 298 299 299 300 300 300 301 301 301 301 302 304 307 311 315 320 325 327 328 327 327 326 325 324 323 320 318 319 322 325 326
328 329 332 334 335 336 337 338 337 336 335 336 337 338 338 338 338 337 337 337 336 335 334 334 334 334 333 334 335 335 335 337 337 338 337 337 336 335 334 333 332 332 330 328 328 326 325 324 324 322 320 310 299 298 298 299 299 299 300 300 300 300 300 301 301 302 303 305 307 310 317 323 325 326 326 325 324 323 322 318 315 315 317 320 321
328 328 329 332 334 335 336 337 338 337 337 336 336 337 338 338 338 338 338 338 337 336 335 335 334 333 333 334 335 335 335 336 336 337 337 337 337 335 334 333 332 332 329 327 327 326 325 324 323 321 317 309 299 297 298 298 299 299 299 300 300 300 300 300 300 300 300 301 302 303 308 316 321 324 324 323 323 321 320 317 314 314 316 317 318
329 331 333 334 335 335 335 336 338 338 338 337 337 337 337 338 338 338 338 338 337 336 336 335 334 334 333 334 334 335 335 335 335 336 336 336 336 336 334 333 332 331 329 327 327 325 324 323 323 321 316 308 299 297 298 298 299 299 299 299 300 300 300 300 299 300 300 300 300 299 303 310 315 319 320 320 318 315 313 310 311 316 318 316 316
326 328 331 334 336 336 336 336 336 338 338 338 338 337 337 338 338 338 339 338 338 337 336 335 335 335 335 335 335 335 335 334 335 335 336 336 335 336 335 333 332 330 327 327 326 325 324 323 322 321 316 308 301 297 298 298 298 299 299 299 300 299 300 300 299 300 299 299 299 299 301 305 309 314 317 317 314 311 307 306 309 316 318 314 315
319 320 323 327 331 333 335 336 336 337 337 338 338 338 338 337 338 338 338 338 339 338 337 336 336 337 336 336 335 335 335 335 335 335 336 336 336 336 335 334 332 329 327 327 326 324 324 323 322 321 316 309 303 297 298 299 298 299 299 299 300 299 300 299 300 300 299 299 299 299 299 302 304 310 318 318 316 312 306 308 313 316 317 316 317
313 315 317 318 322 326 329 333 335 336 336 336 336 337 337 337 337 338 339 339 338 339 338 336 336 337 337 336 335 335 335 334 335 335 336 336 336 335 335 334 332 330 327 327 326 324 324 323 322 321 316 309 303 298 297 298 298 298 299 299 299 299 299 299 300 299 299 299 299 299 298 299 300 306 316 320 319 314 307 312 318 318 318 319 320
310 311 313 315 317 320 321 325 329 333 335 335 335 335 336 336 336 337 338 339 339 338 338 338 337 336 337 337 335 335 335 334 333 335 336 336 336 335 334 334 331 330 328 327 326 324 323 323 322 321 318 311 303 297 297 297 297 298 298 299 299 299 299 299 299 299 299 299 299 299 298 298 298 300 308 317 320 314 307 314 319 320 320 319 319
309 310 311 313 314 316 318 319 322 327 331 333 334 333 334 334 335 335 336 338 339 338 337 336 336 337 337 336 335 335 335 334 331 333 336 335 336 335 334 334 331 330 329 328 327 325 324 323 322 321 320 315 305 298 296 297 297 297 297 298 298 298 299 298 298 298 298 299 299 299 298 298 298 298 299 309 320 315 308 315 318 320 320 318 318
310 311 312 313 314 315 316 318 320 322 326 330 332 332 333 333 334 334 334 335 337 338 337 335 335 336 337 337 336 335 335 335 331 332 336 335 336 336 334 333 331 330 329 328 328 326 325 323 322 321 320 318 311 300 296 297 296 297 298 298 298 298 299 298 298 298 298 299 299 299 299 299 298 299 297 301 317 319 314 318 319 319 319 318 318
310 312 313 314 315 316 317 318 320 322 324 327 330 331 332 333 334 333 333 333 333 334 335 336 336 336 338 338 337 335 334 335 331 331 335 335 335 336 334 333 332 331 329 328 328 327 325 323 322 322 320 319 316 306 297 296 297 297 298 299 298 298 299 298 298 298 298 299 299 300 299 300 298 298 298 298 312 320 319 319 320 319 319 318 318
309 311 313 316 316 317 319 320 321 323 324 326 328 329 330 331 332 333 333 333 333 332 331 332 334 336 337 338 337 335 333 333 330 330 335 335 334 334 334 333 331 330 329 329 328 327 326 324 323 322 321 319 318 313 303 297 297 298 298 298 298 298 298 298 298 298 299 299 299 300 299 300 299 298 299 297 305 317 321 320 319 320 319 319 318
308 311 314 317 318 318 320 323 324 325 325 327 328 329 330 330 331 333 333 333 333 332 331 330 332 334 335 335 334 333 331 330 328 330 333 334 333 333 333 332 331 330 330 329 328 327 325 324 323 322 321 319 318 317 310 301 298 299 299 298 299 298 297 297 298 298 298 299 299 300 300 300 300 299 299 298 301 312 319 320 320 320 319 319 318
307 310 314 317 319 320 321 324 325 327 327 328 329 330 330 331 331 332 332 333 333 333 333 332 332 333 333 333 333 332 331 329 328 330 332 331 331 332 332 331 331 330 330 329 327 326 325 324 323 322 321 319 318 318 315 307 299 298 299 299 299 298 297 296 297 298 298 299 299 300 300 300 300 300 299 299 299 304 311 317 320 319 319 318 318
306 309 314 317 320 321 323 325 326 327 328 328 329 330 330 331 331 332 332 332 333 333 333 333 333 333 333 333 332 332 331 330 328 329 331 330 331 331 332 331 331 330 330 328 327 325 324 324 323 322 320 319 318 317 316 312 305 300 299 299 300 299 297 296 297 298 298 298 299 299 300 300 300 300 300 299 299 299 303 312 317 318 318 318 317
306 310 314 317 320 321 323 325 326 327 327 328 329 329 330 330 331 331 331 331 331 332 332 333 333 333 333 333 333 332 332 331 330 329 329 329 329 330 330 330 330 330 329 327 326 325 324 324 323 322 320 319 318 317 316 315 312 307 303 300 300 300 298 296 296 296 297 297 298 298 299 300 300 300 300 300 300 299 301 307 311 314 316 316 316
306 309 312 315 318 320 322 323 324 326 326 327 328 329 329 329 330 329 329 329 329 330 330 331 332 332 332 332 332 332 332 332 331 330 330 329 329 329 329 329 329 329 328 327 325 324 324 323 323 321 320 318 317 317 316 316 315 312 307 302 300 300 298 296 295 296 296 296 297 298 298 299 299 300 300 300 300 299 299 302 306 309 311 313 314
304 307 310 313 316 318 320 321 323 324 324 326 326 327 327 327 327 327 327 327 327 328 328 328 329 329 329 329 330 330 331 331 331 331 331 330 330 330 330 330 329 328 327 326 325 324 323 323 322 321 319 318 317 316 316 315 314 312 307 302 300 300 298 296 295 295 296 296 296 296 297 298 298 299 300 299 299 299 298 300 303 306 308 309 311
303 306 309 311 313 315 317 319 320 321 322 323 324 325 325 325 324 324 324 324 324 325 324 325 325 325 326 326 326 327 327 328 328 328 329 329 329 329 330 329 329 328 326 325 324 324 323 322 321 320 318 317 316 315 315 314 313 311 306 302 300 299 297 297 296 296 295 295 295 296 296 297 297 298 299 299 299 299 298 298 300 303 306 307 308
303 305 307 309 310 312 314 316 317 319 320 321 322 322 322 322 322 322 321 321 320 320 320 321 321 321 322 322 323 324 324 324 324 324 324 324 324 325 326 326 325 325 324 324 323 323 322 321 320 319 318 317 316 316 315 314 312 309 306 303 300 298 297 297 297 296 296 295 295 295 295 296 296 297 298 298 298 298 298 298 298 299 302 304 304
303 305 306 308 309 310 312 313 314 316 317 318 318 319 319 319 319 319 318 317 316 316 316 316 315 316 317 317 319 320 321 321 321 321 321 320 320 320 321 321 320 320 320 320 321 321 321 320 319 318 318 317 316 315 314 313 311 308 305 302 300 298 297 297 297 296 295 295 295 295 295 295 296 297 297 297 298 298 298 298 298 297 298 300 301
302 303 305 307 308 309 310 311 312 313 314 315 316 316 316 316 315 315 313 311 311 312 311 310 310 310 310 312 313 314 315 316 317 318 319 319 318 318 317 317 318 317 316 316 316 316 317 317 317 317 316 316 315 314 313 310 307 304 303 301 300 298 297 297 297 296 295 295 295 295 295 295 295 296 296 297 297 297 297 297 297 297 297 297 299
300 301 303 304 304 306 308 308 309 311 312 312 313 314 313 312 311 310 308 306 307 307 306 306 306 306 307 308 308 308 309 310 311 313 314 315 315 315 315 315 315 315 315 315 314 314 313 313 312 312 312 313 313 312 310 306 302 300 300 299 298 298 297 297 297 296 296 296 295 296 295 295 295 295 295 296 296 297 297 297 297 297 297 296 296
297 299 300 301 302 304 304 305 307 308 308 309 310 310 309 309 308 306 305 305 304 304 303 303 303 303 303 304 304 304 305 306 306 307 309 310 311 312 312 312 312 313 313 313 313 313 312 312 310 309 308 307 307 307 306 303 300 298 297 296 298 298 297 297 297 297 296 296 296 295 295 295 295 295 295 295 296 296 296 296 296 296 296 296 296
295 296 298 300 301 302 302 303 304 305 305 306 306 306 306 306 306 305 304 303 302 302 302 302 302 302 301 301 301 301 302 302 302 303 304 305 306 308 308 309 310 310 310 310 311 310 310 310 310 309 307 305 305 304 303 301 299 298 297 296 298 298 297 297 296 297 296 296 296 296 296 295 295 295 295 295 295 296 296 296 296 296 296 296 295
293 294 295 297 298 300 301 302 303 303 303 303 304 303 304 304 304 303 303 302 301 302 302 301 301 301 301 301 300 300 300 300 300 301 301 301 302 303 304 305 306 307 307 308 308 307 306 306 306 306 306 305 304 303 303 301 299 298 298 297 295 295 298 297 294 295 296 296 296 296 296 296 296 296 295 295 295 295 295 295 295 295 295 296 295
292 292 293 295 297 299 301 302 302 302 302 303 303 303 303 303 303 303 302 302 301 301 301 300 300 300 300 300 300 300 300 299 300 299 299 300 300 300 300 301 302 303 304 304 305 304 304 303 302 302 303 303 303 303 303 302 301 300 298 297 297 297 299 296 293 296 297 295 296 296 296 296 296 296 296 296 295 295 295 295 295 295 295 295 295
291 291 293 294 296 298 299 301 301 301 302 302 302 303 302 302 302 301 300 299 297 297 297 297 298 298 298 299 299 299 299 299 299 299 299 299 299 299 299 299 299 299 300 301 302 302 302 301 300 300 300 300 300 300 301 301 301 300 298 297 298 298 298 296 295 298 297 295 296 296 296 296 296 296 296 296 296 295 295 295 295 295 295 295 295
290 291 293 294 295 296 297 299 299 299 300 300 301 301 300 300 299 298 297 296 294 293 295 296 296 297 298 298 298 298 298 298 298 298 298 298 298 298 298 298 298 298 298 298 299 299 299 300 300 300 299 298 298 297 298 299 299 299 299 298 297 296 295 294 295 296 296 296 296 295 295 295 295 295 295 296 296 295 295 295 295 295 295 295 294
290 291 292 293 295 295 296 297 297 297 297 298 299 299 298 298 297 296 295 295 293 293 294 295 295 296 296 295 295 296 296 296 296 297 297 297 298 298 298 298 298 297 297 297 297 296 297 297 298 298 299 299 298 297 296 297 296 296 297 297 296 296 295 294 294 294 294 295 294 294 295 295 295 295 295 296 296 296 296 295 295 295 295 295 294
290 291 291 292 294 295 296 296 296 296 296 296 297 297 297 296 295 295 293 292 292 292 292 292 292 292 292 291 291 291 292 292 293 294 295 296 296 297 297 297 297 297 296 296 296 296 296 296 296 297 297 297 297 297 296 296 296 296 295 295 295 295 295 295 294 293 293 293 294 295 294 294 295 295 295 296 296 296 296 296 296 295 295 295 295
289 290 291 292 293 294 295 295 294 294 294 294 294 294 294 294 293 293 291 290 290 290 290 289 289 289 288 288 288 287 288 288 288 289 290 291 292 293 293 294 294 294 294 294 294 294 294 294 295 295 295 296 296 296 296 296 295 295 295 295 294 294 294 294 294 294 293 293 293 293 293 293 293 294 295 295 295 296 296 296 296 296 296 295 295
289 290 290 291 292 292 293 292 291 291 291 291 291 291 291 290 290 289 289 288 288 288 288 287 287 287 287 286 286 286 286 286 286 286 287 287 287 288 288 288 289 290 291 292 292 293 293 293 294 294 294 294 294 294 295 295 295 295 295 294 294 293 293 293 294 293 293 293 293 293 293 293 292 293 294 295 295 295 295 295 296 296 296 296 296
Wind_Speed
20 18 23 26 23 21 20 19 18 17 18 16 15 14 13 11 10 9 9 9 9 10 9 9 8 9 10 11 11 10 10 10 11 11 11 11 10 9 9 9 8 7 7 8 8 8 8 8 9 10 11 11 11 12 13 13 13 12 11 10 10 10 9 9 10 10 10 10 10 10 10 9 9 8 8 9 9 9 9 9 10 11 11 10 9
20 20 22 27 24 23 21 19 18 17 18 17 16 15 15 13 11 10 10 10 9 9 9 8 8 8 9 11 11 10 9 9 9 9 9 9 9 9 8 8 7 6 6 6 7 8 8 8 9 10 10 10 10 10 12 12 12 11 10 9 9 9 9 8 8 9 9 10 10 10 10 9 8 8 8 8 8 8 8 8 8 10 11 9 9
19 21 22 27 25 23 21 20 19 18 18 17 17 16 16 14 13 12 11 11 10 10 8 8 8 8 9 10 10 10 9 9 9 8 8 8 9 8 8 7 6 5 5 6 6 7 7 7 8 8 8 9 9 9 9 9 10 10 9 8 8 8 8 8 7 7 8 9 9 9 8 8 8 7 7 7 7 7 7 7 7 9 10 9 10
19 21 23 27 26 24 22 21 19 19 19 18 18 17 17 15 14 13 12 12 11 11 9 8 7 8 9 9 9 9 9 9 8 8 8 8 8 7 7 6 5 5 5 6 5 6 6 6 6 6 6 7 8 7 7 7 7 7 7 7 6 7 7 8 7 7 8 8 7 7 7 7 7 7 7 7 7 8 8 9 8 8 9 9 10
20 20 24 27 26 26 24 22 20 19 19 19 19 18 17 16 15 14 13 12 12 11 10 9 8 9 9 10 9 9 8 8 8 8 8 7 6 6 7 6 5 5 5 6 5 5 5 4 4 4 4 5 6 6 5 5 4 4 5 5 5 6 6 7 7 6 7 6 6 6 7 7 7 6 6 6 7 8 10 10 9 9 9 9 9
18 20 23 27 27 28 25 23 22 21 20 20 20 18 17 17 16 15 14 12 11 11 11 11 9 9 10 10 10 10 9 8 7 7 7 7 6 6 6 5 4 5 5 6 5 5 3 1 2 2 4 4 5 4 3 2 1 1 2 4 5 5 5 6 6 5 5 5 5 6 7 7 7 6 5 6 6 7 9 9 9 9 8 8 8
16 19 22 26 27 28 26 25 23 22 22 21 20 19 18 17 17 15 14 12 11 11 11 11 11 10 10 11 11 11 10 8 7 6 6 5 5 6 5 4 4 5 5 5 5 4 1 2 3 2 2 4 4 4 3 2 2 2 2 4 5 5 5 5 5 4 3 4 6 6 6 6 5 5 5 5 6 6 6 7 8 8 7 6 6
16 19 21 24 27 28 27 26 24 23 23 23 22 20 19 18 17 15 14 13 12 11 10 11 11 11 10 10 9 9 9 8 6 5 5 4 5 5 6 5 5 5 6 6 5 3 1 3 4 3 3 4 5 4 4 4 5 5 5 5 7 7 6 6 5 4 3 5 7 6 5 5 4 3 3 4 6 6 5 6 7 7 7 6 5
16 18 19 23 26 28 28 27 25 24 24 24 23 22 21 19 18 16 15 14 13 12 11 11 11 11 10 9 8 8 7 7 6 6 5 4 5 6 6 6 5 5 6 5 4 1 2 4 4 3 5 6 7 6 5 6 6 7 6 5 6 8 8 6 5 4 3 6 7 6 5 4 3 3 3 3 4 5 4 5 6 6 6 6 6
16 17 18 21 24 27 28 27 26 25 25 24 24 23 21 20 19 18 16 15 15 13 11 12 12 11 10 9 9 8 7 7 6 6 6 5 6 6 7 7 5 5 6 5 3 1 2 4 3 3 7 6 6 6 5 6 6 6 4 3 4 6 8 7 6 5 5 6 7 6 4 3 3 3 3 3 4 3 3 4 5 5 5 5 5
16 17 17 19 22 25 27 28 27 27 26 24 24 24 22 21 21 19 18 18 17 15 14 13 13 12 11 10 9 8 8 8 7 7 6 5 6 6 7 6 5 5 5 4 3 1 2 2 2 2 7 7 3 4 4 4 3 3 2 2 3 5 7 7 7 6 6 6 6 5 4 3 3 4 3 3 4 3 3 4 4 4 3 3 3
16 17 17 18 20 24 27 28 28 27 26 25 25 24 23 22 21 20 19 19 19 17 16 15 15 13 12 11 10 10 10 9 9 9 7 6 6 7 7 7 6 6 5 4 3 1 1 2 2 3 7 8 5 3 3 3 2 1 1 1 2 4 6 7 7 7 7 7 7 6 5 4 4 4 2 3 3 3 3 3 3 2 2 1 1
15 17 17 17 19 23 26 28 28 28 27 26 25 25 24 22 21 21 20 19 19 18 17 17 17 16 14 12 12 11 11 11 11 10 8 7 7 8 8 8 7 7 6 5 4 3 3 4 5 7 10 10 6 3 3 3 3 2 1 1 2 4 6 7 7 8 8 8 8 8 6 5 6 4 2 3 3 3 3 3 2 1 2 2 2
13 16 17 17 18 21 25 28 29 29 28 27 26 25 25 23 22 21 20 19 20 18 18 18 18 17 16 14 13 13 12 12 12 11 10 8 7 7 8 8 7 6 6 5 5 5 5 7 7 8 11 11 6 3 3 3 3 2 1 1 1 3 6 8 8 8 9 10 10 9 8 7 7 5 3 2 2 2 1 1 1 1 2 3 3
12 14 15 17 17 19 24 27 29 29 28 28 27 26 25 25 23 22 21 20 21 20 19 19 19 18 17 16 15 14 13 13 12 12 11 10 9 8 8 7 6 5 6 6 6 7 8 7 8 11 11 9 5 4 3 3 3 2 2 1 1 2 5 7 9 9 10 10 10 10 10 9 8 6 4 2 1 1 1 1 1 1 1 2 2
12 13 14 16 16 17 21 26 28 28 28 28 27 26 26 26 24 23 22 21 21 21 20 19 19 19 18 17 17 16 14 13 13 13 13 12 10 10 9 8 7 6 6 7 7 7 7 6 9 12 9 5 4 4 4 4 3 3 2 2 2 2 3 6 8 9 10 10 11 11 10 10 9 7 5 3 2 3 3 2 3 3 2 2 1
12 13 14 15 16 16 19 23 27 28 27 27 27 26 26 26 25 24 22 21 20 21 21 20 20 20 19 18 18 17 15 14 13 13 14 13 12 11 10 10 8 7 6 7 6 6 9 10 11 12 9 5 4 4 5 5 4 4 3 3 3 3 3 4 6 8 10 10 11 11 10 10 10 9 6 4 3 3 4 3 3 4 5 4 3
12 14 15 15 16 16 17 21 24 27 28 27 27 27 26 26 26 25 23 21 20 21 21 21 21 20 19 18 18 18 16 14 14 14 15 14 14 12 11 10 8 7 7 7 5 7 12 13 12 13 11 7 5 5 6 5 5 4 4 4 3 3 3 4 4 6 7 9 10 10 10 10 10 10 7 5 5 4 4 5 5 5 6 5 5
13 14 15 16 16 17 18 19 22 26 27 28 27 27 26 26 26 25 24 21 20 21 21 21 21 20 20 19 19 19 17 16 14 14 16 16 15 13 11 10 8 8 8 7 7 9 13 13 12 13 11 9 6 7 6 6 5 5 4 4 4 3 3 3 4 4 5 7 8 10 11 10 10 10 9 7 6 4 4 6 6 7 7 6 6
14 16 16 17 17 17 18 19 22 24 26 28 28 28 27 26 26 25 24 23 21 20 21 21 20 20 20 19 19 18 17 16 15 14 17 17 16 14 11 9 9 9 8 9 9 11 14 14 14 13 11 9 8 8 8 7 6 5 5 4 4 3 3 3 3 4 4 5 6 8 10 11 10 10 9 9 8 6 6 6 7 7 7 7 7
15 16 17 18 18 18 19 20 21 23 25 26 28 28 28 27 26 26 25 24 22 21 21 20 20 19 19 19 18 18 18 17 15 15 17 17 16 15 12 11 11 9 8 10 11 13 16 15 15 14 11 9 8 9 9 8 7 6 5 4 4 3 3 3 3 4 4 4 5 6 8 9 9 9 8 9 9 9 9 8 8 7 7 7 7
14 14 15 17 19 19 19 20 21 22 24 25 27 28 28 28 27 27 26 25 24 22 22 21 20 20 19 19 19 19 19 18 16 15 17 17 16 16 14 12 12 10 10 11 12 14 15 16 15 15 13 10 8 9 9 9 8 7 6 5 4 4 4 4 4 4 5 5 5 6 7 8 8 8 8 8 8 9 9 8 7 5 5 6 6
13 14 15 16 18 19 20 21 21 21 23 25 26 27 28 28 28 27 27 26 25 24 23 22 22 21 20 20 19 19 19 19 18 17 18 18 17 17 15 14 14 12 10 12 13 14 15 16 15 16 14 11 10 11 11 9 8 7 6 6 5 5 4 4 5 5 5 5 5 6 7 8 7 6 5 5 6 7 7 6 6 5 4 5 4
16 16 16 16 19 20 20 21 21 21 22 23 25 26 27 27 27 27 27 27 26 25 25 24 23 22 21 20 20 20 19 19 18 17 19 20 19 18 17 16 16 13 11 13 14 14 15 15 15 16 15 12 11 12 12 10 9 8 7 7 6 6 6 5 5 5 5 5 5 6 6 7 7 6 4 4 4 6 6 5 5 4 4 3 2
13 14 15 16 17 19 21 21 22 22 22 23 24 25 26 26 27 27 27 27 27 26 26 26 25 24 23 22 21 20 21 20 19 19 20 21 21 19 19 17 15 13 11 13 14 15 16 16 17 17 15 12 12 12 12 10 9 9 9 8 8 7 7 6 5 5 5 5 5 6 6 7 8 7 5 4 4 6 6 4 4 4 3 2 3
5 6 10 13 14 16 19 21 22 23 23 23 23 23 24 25 26 26 26 27 27 27 26 26 26 26 25 23 21 21 21 21 20 20 21 22 22 21 21 19 16 13 13 15 15 15 16 17 18 18 16 13 12 13 12 11 10 10 10 10 9 8 7 7 6 6 5 5 5 6 6 7 8 8 7 5 5 7 5 4 4 4 3 3 4
9 7 5 7 10 14 16 17 21 22 23 23 22 22 23 24 24 25 25 25 26 26 26 25 24 25 26 25 23 22 22 22 21 22 23 23 24 23 22 20 17 16 16 15 15 16 17 18 19 20 19 16 14 14 13 12 12 12 12 12 10 9 8 8 7 6 6 5 6 6 6 7 7 8 8 7 5 6 5 4 4 4 4 4 4
12 11 9 6 5 9 13 14 17 20 21 21 21 21 21 21 22 22 23 24 24 25 25 24 23 23 26 26 24 21 22 23 21 22 25 24 25 24 22 20 18 18 17 15 17 18 18 19 20 20 20 18 16 15 14 13 13 13 13 13 11 10 9 8 8 7 6 6 6 6 6 6 7 7 8 8 6 6 6 4 5 5 6 6 4
16 15 13 10 6 3 9 11 12 16 19 19 19 20 20 20 20 21 21 22 23 24 24 23 22 22 23 22 21 21 21 23 21 22 25 24 24 24 22 21 20 19 16 17 20 19 19 20 20 20 21 20 18 17 17 15 15 15 14 13 12 11 10 9 8 7 7 6 6 6 6 6 7 7 8 8 6 7 7 6 6 7 7 7 6
19 18 16 13 9 3 4 7 8 11 15 17 17 17 18 18 18 19 19 20 20 21 21 20 21 22 21 21 23 23 23 24 22 22 25 23 22 23 23 22 20 18 18 20 21 19 20 20 20 20 21 21 20 18 18 17 16 16 15 14 13 11 10 10 9 8 8 8 7 7 7 7 7 7 8 8 8 7 8 8 8 8 8 7 7
19 19 18 16 12 6 3 4 4 6 10 13 15 15 15 15 16 16 17 18 17 18 17 17 19 21 22 23 24 23 22 24 21 22 24 22 22 24 23 21 20 20 21 22 21 20 20 20 20 20 21 21 21 20 19 19 18 16 15 15 13 12 12 11 11 10 9 9 9 8 8 8 8 8 8 9 9 9 9 9 9 9 8 8 8
19 20 19 17 14 9 6 5 4 3 6 10 12 13 13 13 13 13 13 15 15 16 17 17 17 18 20 20 21 20 19 20 19 22 24 23 23 24 23 23 22 22 23 22 21 20 19 19 19 19 20 21 21 20 20 20 19 18 16 15 15 14 14 13 13 12 11 11 10 10 10 10 10 9 9 9 10 10 10 10 9 11 11 11 12
19 19 19 18 17 14 10 7 6 4 2 4 7 8 9 9 8 8 9 10 12 14 15 16 16 16 16 17 18 18 17 17 17 20 21 22 23 23 24 23 23 23 23 22 21 20 19 19 19 19 20 21 21 21 20 21 21 20 18 17 17 17 16 16 15 14 14 13 12 12 12 12 12 11 11 11 11 11 11 11 12 14 15 15 15
18 19 20 21 20 18 16 13 10 8 6 3 1 2 3 3 3 2 3 5 8 10 12 14 15 15 16 16 16 17 17 17 17 18 19 20 21 22 23 24 24 25 24 23 21 21 20 19 19 19 20 21 21 21 21 22 22 23 22 20 19 19 19 19 18 17 16 15 14 14 13 13 13 12 12 12 12 12 12 14 15 16 17 17 16
19 20 21 22 21 21 21 19 16 13 12 10 7 6 5 4 4 4 4 3 3 6 8 11 13 14 15 15 16 16 17 17 17 18 19 20 20 22 23 24 25 24 23 22 21 21 20 20 19 19 20 20 21 21 22 22 22 23 23 22 21 21 21 21 21 19 18 17 16 16 15 15 14 14 14 14 14 14 14 16 17 17 17 17 16
20 20 21 22 22 22 22 21 21 19 17 16 14 13 12 11 11 10 9 7 6 4 2 3 6 9 11 13 14 16 17 19 19 19 20 20 20 20 21 22 23 23 22 21 21 21 20 20 19 18 19 19 20 20 21 22 22 22 22 22 22 22 23 23 22 21 19 19 19 18 17 16 15 15 15 15 15 15 16 16 18 18 18 17 16
21 21 22 22 23 22 21 22 23 22 22 20 19 19 19 19 19 19 18 17 16 14 12 8 5 3 1 3 6 9 12 14 16 18 19 21 21 20 21 22 23 22 22 21 21 20 19 19 18 17 18 18 19 20 20 21 20 20 21 21 22 23 23 23 22 22 21 21 21 20 19 18 17 16 16 17 17 17 17 17 18 19 19 18 17
22 22 23 23 23 23 22 22 22 22 22 22 22 22 22 22 23 23 23 23 24 22 20 18 17 15 12 9 6 3 4 5 7 9 11 14 16 17 19 20 20 21 21 21 20 19 19 18 17 16 17 18 19 19 19 19 19 20 20 22 23 23 23 23 23 23 23 23 22 22 21 20 19 18 18 18 18 18 18 18 19 19 20 19 18
23 23 23 23 23 23 22 22 21 21 21 21 22 22 22 23 23 23 23 24 24 23 23 23 22 21 19 17 14 11 9 8 6 6 5 6 7 9 12 14 15 16 16 17 18 18 18 17 17 17 16 17 18 19 19 18 19 20 21 22 23 24 24 24 25 25 25 24 24 23 23 22 20 20 20 20 20 19 19 19 20 20 20 20 19
24 24 24 24 24 24 23 23 21 20 19 18 19 20 21 22 22 23 24 25 24 23 23 22 22 21 20 19 17 17 14 12 11 9 7 6 6 5 6 7 8 10 11 11 12 13 14 15 16 17 17 17 18 18 18 18 18 19 21 22 23 23 24 25 26 26 27 26 25 25 24 23 23 23 23 22 21 21 21 20 20 20 21 21 21
25 25 26 26 25 25 24 24 23 20 19 19 18 19 20 21 22 24 25 25 23 23 23 22 21 20 19 18 18 17 16 14 14 12 11 9 8 7 6 6 4 4 6 8 9 10 11 12 13 14 15 15 17 17 17 16 13 15 18 19 21 23 24 25 26 27 28 29 27 26 26 26 26 26 25 24 24 23 22 22 22 22 22 22 22
26 26 26 26 26 26 26 25 24 23 23 22 20 21 21 21 23 25 25 25 24 24 25 24 22 21 20 19 18 17 16 16 15 14 13 12 10 9 9 8 7 6 4 5 7 9 10 11 11 12 12 12 14 15 15 13 10 10 10 10 13 17 19 22 26 29 30 30 29 29 30 29 29 28 26 26 26 25 24 23 23 23 23 24 24
25 26 26 26 26 26 26 25 24 24 24 24 23 23 22 21 22 23 23 25 26 25 24 23 22 21 21 21 20 18 17 17 16 15 15 14 13 12 10 9 8 7 6 5 5 6 8 9 9 11 11 11 12 13 14 12 10 8 6 4 5 7 9 13 19 24 27 30 32 33 33 32 31 30 28 28 29 28 27 25 25 25 25 25 25
26 26 26 26 27 26 25 24 24 23 23 23 23 23 22 21 22 22 22 24 24 23 22 22 21 21 22 21 21 20 19 18 17 17 16 16 15 14 13 11 9 8 7 7 7 7 8 9 9 10 10 11 12 13 13 13 12 10 5 2 1 2 4 5 10 17 19 20 25 29 32 34 33 31 30 30 31 30 30 28 27 27 26 26 26
26 26 26 26 26 26 25 23 22 22 21 20 19 18 18 18 18 19 20 22 23 23 24 25 24 23 22 21 20 19 18 18 18 18 17 17 17 16 15 14 13 11 9 9 8 8 8 9 10 10 10 11 12 13 14 14 14 14 11 5 2 2 3 4 9 12 12 13 17 21 26 30 33 33 32 32 32 32 32 31 30 29 28 28 28
24 24 25 25 26 25 24 23 23 21 20 18 17 15 16 17 18 20 22 24 27 27 27 26 25 24 22 20 19 18 18 18 18 18 17 17 17 17 17 16 15 15 13 11 9 8 8 8 9 9 9 10 11 13 15 16 16 16 17 16 14 10 7 6 7 6 11 16 17 17 18 22 27 30 32 33 34 34 34 33 33 31 30 29 29
20 22 24 25 26 26 25 25 24 23 21 20 18 18 20 22 24 26 26 27 28 26 24 23 22 21 19 19 19 18 18 18 18 18 17 17 17 17 17 17 16 16 15 14 13 12 10 9 8 8 8 8 8 10 14 16 16 16 17 19 22 22 18 12 7 5 9 13 14 18 21 22 24 26 29 32 34 36 36 36 36 35 33 32 31
19 22 25 26 27 26 26 26 25 24 23 21 20 20 22 23 24 26 27 27 27 25 24 23 22 21 21 22 21 20 20 19 18 18 17 17 17 17 16 16 17 17 16 16 16 15 12 10 9 8 8 8 8 8 11 13 13 15 17 17 19 21 22 20 16 11 7 7 12 18 23 26 26 26 27 29 32 34 36 37 38 39 37 36 34
20 22 24 25 26 26 27 27 27 26 25 23 23 23 23 24 25 27 28 28 27 27 25 25 26 25 26 27 26 26 25 24 23 22 21 19 18 18 17 17 17 17 17 16 16 16 15 14 12 11 11 10 9 9 10 11 12 14 16 17 18 18 18 19 19 17 11 9 9 10 17 23 24 27 29 29 32 33 34 36 38 40 39 39 38
20 22 23 24 25 26 26 27 28 27 26 25 25 26 25 25 26 27 28 27 26 26 26 27 27 27 28 28 28 28 28 28 28 27 26 24 23 21 20 20 19 18 18 17 17 17 16 16 14 13 13 12 12 11 11 12 12 13 14 15 16 16 15 12 12 14 13 12 9 8 14 18 17 24 30 31 32 33 34 35 36 38 39 40 40
18 21 23 24 24 25 25 27 27 25 25 25 25 26 25 25 26 25 26 25 25 25 26 27 26 26 27 27 27 27 27 27 27 27 27 26 25 24 24 23 23 22 21 20 19 18 17 16 15 14 13 13 13 13 13 13 14 14 14 14 15 14 13 12 13 15 13 10 9 7 13 18 18 24 29 31 33 33 33 34 34 36 38 39 41
Wind_Direction
196 191 190 181 177 179 182 183 185 186 179 176 173 173 173 174 175 165 158 153 145 142 141 138 135 130 132 131 127 128 127 126 127 126 125 121 115 114 110 108 110 112 121 125 125 113 100 96 97 95 92 89 85 85 87 88 92 95 100 103 107 111 113 114 113 112 108 103 101 101 95 92 91 86 81 71 70 76 80 84 88 88 81 75 73
189 187 192 185 179 180 184 181 186 188 182 178 175 179 175 177 182 175 171 160 151 149 144 142 141 136 136 135 134 135 133 132 128 126 125 124 124 123 119 115 117 127 139 135 126 114 107 102 99 99 96 93 88 85 87 90 95 98 101 104 109 113 116 119 113 108 107 108 108 108 104 98 95 91 86 74 72 77 83 86 88 90 86 83 79
180 181 189 187 181 181 184 181 186 188 185 182 180 184 179 180 181 181 181 170 162 156 152 150 148 144 142 141 141 140 140 140 137 136 134 131 132 131 125 122 130 135 135 131 129 122 113 105 101 103 103 101 98 93 88 89 95 100 103 103 109 114 119 123 119 109 104 105 104 105 105 100 96 91 87 81 81 81 85 86 86 86 85 84 81
179 179 185 188 184 182 185 183 186 189 186 184 184 187 184 184 181 183 183 176 171 165 162 159 157 152 147 146 144 143 144 142 143 144 141 135 135 139 133 131 137 132 130 130 130 128 120 112 106 107 111 111 112 108 100 94 95 102 107 109 113 117 124 131 130 118 105 100 98 96 98 99 93 87 87 86 86 85 84 82 82 84 86 86 80
182 181 183 188 187 185 186 184 187 190 187 185 187 188 186 187 185 186 185 178 174 175 171 167 166 159 154 151 150 149 147 146 148 150 148 144 143 146 145 137 133 140 137 133 130 125 123 122 110 114 128 130 130 123 117 105 97 105 115 127 130 130 137 141 142 131 113 104 103 99 99 100 93 86 85 84 81 80 80 77 76 78 83 87 86
186 184 184 189 190 188 187 185 188 191 188 189 190 189 188 189 187 186 186 181 177 180 176 173 170 166 162 158 159 158 157 160 159 160 160 157 153 153 159 143 134 151 140 135 130 123 127 88 65 130 160 162 162 155 150 136 111 117 145 161 155 154 158 158 158 151 132 125 124 111 107 102 98 92 83 77 71 69 71 73 73 74 75 84 94
190 188 187 190 193 192 189 188 189 190 189 192 192 191 192 192 191 189 188 185 184 185 179 175 170 168 168 164 165 165 166 170 170 170 172 170 166 167 169 150 153 162 141 136 124 123 140 40 45 70 180 192 201 208 221 250 268 271 239 210 197 189 179 180 181 177 157 143 145 125 114 104 103 101 87 75 70 70 66 68 69 68 71 77 91
190 192 191 192 196 194 192 191 191 191 192 194 192 192 195 195 194 193 191 190 191 192 187 177 172 171 169 168 167 167 169 174 177 177 180 179 184 186 172 159 177 171 144 138 124 117 6 7 20 6 298 250 240 244 255 275 282 284 275 246 223 211 197 193 195 192 162 148 154 135 118 108 100 92 92 93 89 91 80 66 62 58 59 61 69
190 194 194 195 198 197 196 194 193 193 195 197 193 192 196 197 197 196 195 195 196 197 193 183 178 177 173 175 174 173 175 179 183 185 188 183 194 197 177 171 184 169 148 142 130 115 325 326 349 345 303 277 259 261 270 282 288 290 287 265 232 217 211 205 200 191 166 158 164 151 132 116 85 71 100 128 109 99 88 66 52 50 51 50 55
191 195 197 198 200 199 199 197 196 196 198 200 196 196 197 198 200 198 197 198 199 197 193 187 185 183 180 183 184 184 185 190 191 194 197 191 197 194 180 177 177 161 148 146 137 102 338 323 353 326 309 307 259 256 268 277 283 287 290 271 232 212 209 208 205 191 171 168 176 166 143 117 83 74 89 120 110 87 68 53 41 47 57 59 60
191 196 200 201 202 202 201 200 199 199 201 202 199 199 198 201 201 198 198 200 199 198 194 190 188 188 188 191 193 194 194 195 198 201 201 194 186 181 182 174 164 154 147 148 147 121 7 343 10 309 318 342 290 250 257 258 263 273 291 271 221 201 201 202 204 193 176 174 180 167 145 130 100 86 84 90 92 75 52 42 41 52 56 58 65
192 198 201 204 205 205 205 203 202 202 203 203 204 202 200 203 203 198 199 200 198 198 195 190 189 190 193 197 198 200 202 200 202 206 203 192 176 174 178 168 162 160 165 168 165 213 328 311 280 274 306 337 322 260 227 211 195 224 253 238 191 189 192 193 198 193 180 176 178 166 157 148 111 97 93 88 81 63 48 30 22 62 82 36 63
194 200 203 206 207 209 208 206 205 205 205 204 206 206 203 204 204 200 199 199 196 197 198 192 189 191 195 200 203 205 208 207 206 207 204 195 180 177 178 173 175 180 197 200 200 227 257 257 260 272 293 318 309 240 187 179 169 186 197 179 172 184 187 184 187 187 183 178 179 174 166 155 127 115 104 89 76 58 45 32 3 274 205 217 190
202 202 203 207 209 212 211 209 208 207 208 206 208 208 205 206 206 203 201 200 197 198 201 196 190 192 197 201 204 208 215 215 210 205 205 199 187 183 184 184 187 198 222 232 240 259 265 259 265 274 288 302 288 217 180 172 169 180 185 193 180 186 190 186 181 179 181 178 179 178 172 166 149 138 133 117 87 59 33 51 35 300 221 194 167
215 209 204 207 210 214 215 213 211 210 210 209 210 209 207 208 209 206 204 203 198 199 202 199 194 196 201 202 203 209 215 220 216 209 207 202 195 194 195 203 219 232 245 255 266 281 283 275 269 274 289 291 252 202 181 172 171 181 180 193 196 193 196 193 187 182 182 181 181 178 175 174 161 151 153 158 171 179 241 222 206 214 216 188 165
219 217 212 210 211 215 217 217 215 214 213 212 213 213 211 211 213 211 209 208 201 201 202 200 198 200 204 203 205 212 216 221 222 212 208 206 201 202 208 220 240 255 258 258 265 275 271 257 251 266 292 283 218 195 183 179 178 184 184 183 190 195 199 199 196 190 188 188 187 185 184 183 172 164 177 176 174 202 200 211 223 219 217 224 196
219 220 220 216 214 214 217 218 218 217 216 216 217 217 216 215 217 216 215 215 208 205 203 202 203 205 208 205 207 214 217 222 225 216 211 210 205 206 215 226 243 260 262 256 259 253 248 246 245 258 276 267 214 196 188 188 187 186 185 181 189 194 201 206 202 197 195 195 193 193 191 191 185 173 175 172 168 191 184 185 215 223 225 230 230
223 223 225 224 220 217 217 218 219 219 219 219 221 222 221 220 220 220 219 220 215 210 207 206 207 208 209 207 209 216 220 224 226 219 213 212 208 210 218 227 243 255 260 263 260 244 248 254 255 259 264 255 220 204 197 196 195 193 190 184 189 195 205 211 211 207 200 200 199 199 196 195 194 183 174 174 182 193 186 192 201 212 219 226 236
224 228 230 231 228 225 220 218 219 220 221 221 222 224 225 224 223 223 223 223 221 217 215 213 213 213 211 210 213 219 223 228 231 223 216 213 212 216 221 230 248 256 263 267 253 240 248 255 259 264 262 246 223 208 203 203 203 199 197 193 196 199 210 215 220 221 207 203 204 204 203 200 198 196 190 186 189 193 201 211 218 221 216 216 226
223 228 231 233 232 231 228 223 220 220 222 223 224 225 227 227 227 227 226 226 225 223 222 220 219 217 214 214 218 223 227 232 236 229 220 217 219 222 224 236 254 259 266 264 249 242 250 256 261 269 262 239 221 211 207 208 208 206 207 204 205 204 207 212 220 227 220 212 208 206 205 201 201 204 205 208 213 216 229 243 248 243 229 226 227
226 229 231 234 234 234 233 229 226 224 224 225 226 227 228 229 229 230 230 229 229 228 226 224 223 221 218 219 221 226 231 235 238 232 225 224 227 226 227 242 252 257 267 266 257 250 255 259 263 271 262 238 224 215 211 212 209 208 213 212 213 212 207 211 215 221 228 226 220 212 207 205 202 206 216 225 234 240 248 257 259 253 240 238 237
241 236 234 235 237 239 238 235 232 229 227 227 227 228 228 229 229 231 232 232 231 230 230 228 227 225 223 223 224 228 232 237 239 235 230 229 232 231 232 242 244 250 267 271 265 256 259 263 265 270 260 238 225 218 215 217 213 209 217 222 223 221 217 216 214 218 225 226 225 221 214 211 206 212 225 234 244 252 254 254 251 247 245 247 245
264 256 248 241 240 242 241 240 238 234 231 230 230 229 229 228 229 231 232 233 233 232 232 231 230 230 229 228 228 231 234 238 239 236 233 233 233 233 234 241 244 251 265 271 266 258 262 268 268 270 260 237 225 221 216 217 216 214 220 227 229 227 227 223 222 226 228 230 229 225 222 218 214 217 228 237 248 257 255 248 241 233 245 254 248
279 273 269 258 251 246 244 243 242 240 236 234 233 232 230 229 229 230 233 234 235 233 232 233 233 232 231 232 234 235 237 239 240 238 236 234 232 232 234 238 247 257 264 264 263 259 263 269 266 270 265 241 226 224 219 219 219 219 224 228 231 230 228 226 227 229 228 233 233 229 227 224 221 215 222 237 247 260 255 239 232 227 241 259 245
284 275 272 269 262 255 252 247 243 242 241 238 236 234 232 231 230 230 232 234 235 235 234 235 236 237 235 235 237 239 241 240 240 239 237 235 234 236 236 236 243 255 261 258 260 259 261 265 264 270 273 248 226 225 222 222 223 224 230 230 231 230 228 228 228 230 230 232 234 232 232 231 228 217 218 236 249 265 258 228 220 218 225 232 229
326 290 269 264 258 254 256 252 247 243 242 243 240 239 236 234 233 230 231 233 235 235 236 234 234 237 237 238 240 242 243 242 241 241 238 236 235 237 237 235 240 253 260 256 258 258 257 262 266 270 275 260 233 225 223 225 227 228 232 232 230 229 228 228 227 229 231 233 235 236 236 236 236 230 224 225 246 269 260 225 220 220 229 230 228
20 9 328 277 254 245 246 248 247 244 241 242 243 243 241 240 238 234 233 234 236 237 238 237 234 234 234 239 244 243 242 242 242 242 240 238 237 237 236 235 242 254 255 253 258 260 257 260 265 267 272 269 247 231 226 227 229 229 232 233 231 229 227 226 228 230 232 236 239 240 241 238 240 238 232 224 234 261 256 231 228 225 245 249 238
21 18 12 354 292 243 234 235 241 244 242 240 242 244 245 245 243 240 237 235 237 238 239 239 238 237 234 232 235 239 242 243 243 242 240 239 237 233 233 237 245 247 246 256 264 261 259 259 263 265 267 269 258 242 233 230 231 231 232 233 233 232 231 228 230 233 237 245 248 251 252 248 245 241 239 233 229 246 247 234 233 233 248 254 246
21 18 16 14 0 262 224 225 231 240 242 240 242 244 246 247 246 245 243 240 239 240 240 238 238 239 234 229 236 243 243 243 244 244 240 237 237 234 234 238 241 240 245 260 261 258 261 261 261 263 264 266 264 252 242 236 234 235 234 234 235 235 235 236 236 239 246 254 259 262 262 261 257 247 243 238 226 233 241 235 236 241 243 245 245
20 20 23 23 20 15 199 208 216 232 241 240 241 243 246 250 250 250 249 248 248 248 246 242 240 242 242 243 250 253 247 244 245 246 242 236 239 240 238 236 237 243 255 260 256 257 262 262 262 264 264 265 265 259 252 246 241 240 239 236 237 238 239 240 241 242 247 256 262 266 269 269 263 255 248 241 228 224 236 238 239 242 239 240 243
22 26 28 30 32 38 108 155 177 212 237 241 242 243 246 251 255 256 255 255 256 256 253 249 245 245 249 252 256 258 255 250 245 245 245 244 246 243 239 237 241 250 256 255 253 256 260 263 264 265 266 265 265 263 259 255 248 246 246 243 243 246 246 245 247 249 251 257 263 268 272 272 269 263 254 244 233 223 227 235 241 242 236 239 243
28 30 31 36 41 49 75 107 129 167 227 241 244 244 246 250 255 259 261 261 259 256 254 254 253 252 254 255 259 261 258 253 246 243 243 245 247 244 241 242 247 254 254 252 252 254 257 260 262 263 264 263 261 262 262 261 256 254 254 253 254 254 254 252 252 254 254 255 261 267 270 271 270 267 262 252 243 236 229 224 231 235 229 229 229
33 38 41 45 48 53 66 83 102 120 171 234 248 249 250 251 254 261 266 266 265 261 258 260 263 263 262 261 263 263 260 257 249 246 246 245 246 246 246 247 253 257 254 250 250 252 253 255 259 262 262 260 259 259 261 263 262 262 260 259 260 261 261 258 256 257 257 257 258 263 267 269 269 268 267 260 253 248 237 223 224 228 226 229 227
39 48 52 54 56 60 67 72 82 92 98 108 171 230 241 240 236 235 242 256 260 261 262 263 263 262 263 264 266 267 267 265 258 253 251 251 251 252 254 257 259 257 252 249 249 250 251 253 258 260 261 260 259 258 259 261 265 267 266 263 263 265 266 263 260 259 259 258 258 260 262 266 268 268 268 264 259 253 243 234 233 234 231 234 233
44 52 56 61 65 68 71 74 77 81 85 91 99 109 118 127 130 131 142 177 218 241 253 259 259 258 259 258 257 257 260 261 262 261 256 254 254 256 258 261 260 256 252 250 248 248 248 251 256 260 262 260 259 260 260 263 266 268 268 265 265 268 267 264 262 261 261 260 260 260 260 263 265 267 267 265 263 257 249 242 240 243 240 240 239
46 52 59 66 70 73 76 78 78 80 84 88 94 100 105 106 103 102 107 116 123 132 163 248 261 265 265 263 258 254 254 253 254 257 259 259 260 262 265 265 263 259 254 250 247 246 246 249 254 260 263 262 261 262 264 267 269 269 267 264 265 268 267 264 263 262 263 263 261 261 260 261 262 263 265 265 263 258 252 248 245 246 245 244 241
51 56 61 65 69 73 77 80 80 82 85 90 94 96 98 98 95 94 92 91 91 89 89 91 84 64 353 303 286 273 267 260 255 252 250 250 253 257 261 264 262 259 255 250 247 247 248 251 255 260 263 264 264 266 268 270 271 271 269 266 267 268 266 265 264 265 265 264 263 264 263 262 262 261 263 263 262 259 255 253 250 249 248 246 241
57 60 64 66 68 71 75 79 83 86 88 91 93 95 96 95 93 91 89 86 83 81 81 80 76 72 70 64 51 16 333 309 289 272 256 251 250 249 252 256 257 256 253 249 246 247 249 250 254 259 262 262 265 268 271 272 273 273 272 270 267 265 265 265 266 265 264 265 265 267 266 264 262 262 262 261 260 260 258 256 253 252 251 249 244
62 64 67 70 71 72 74 79 82 87 92 95 96 97 97 95 93 91 87 83 80 78 76 73 70 68 66 63 61 58 46 32 14 351 323 297 285 271 263 260 255 248 245 243 242 245 248 251 257 259 258 259 263 266 269 270 271 270 270 269 267 265 264 264 264 263 262 264 266 266 266 265 263 262 260 258 259 259 257 256 254 254 253 251 247
64 66 69 70 70 71 74 75 77 83 92 98 99 98 96 93 91 88 84 80 79 78 75 71 68 65 63 60 56 53 50 47 44 36 30 18 1 343 317 296 274 256 249 246 245 248 249 254 258 258 256 256 259 261 262 265 267 270 270 269 267 265 264 263 262 262 262 262 263 265 266 266 263 261 260 258 257 257 255 255 255 255 254 252 248
62 64 66 66 67 69 72 72 73 78 82 85 89 90 90 90 89 87 84 80 78 77 74 71 69 66 63 60 56 51 47 45 43 41 41 39 38 34 27 18 356 307 280 271 272 274 268 265 264 264 263 260 259 260 261 262 264 269 273 273 270 267 265 263 262 263 264 263 262 264 265 265 263 262 262 260 258 256 254 254 255 254 254 253 249
57 61 63 65 68 71 71 72 75 78 78 78 81 82 84 89 90 89 87 82 78 76 74 71 70 69 66 62 59 55 49 46 42 40 40 38 37 35 33 34 34 26 357 315 300 298 294 290 288 286 279 271 268 267 266 263 256 263 277 290 289 280 271 265 266 266 264 263 263 263 264 263 263 263 263 262 261 259 256 254 254 253 252 251 250
57 61 64 67 70 71 71 74 76 78 80 81 82 82 85 89 91 91 90 86 81 79 78 75 74 72 68 64 61 57 53 51 47 42 40 37 34 31 30 27 26 29 27 16 358 340 329 321 315 305 293 285 281 277 274 265 258 269 289 301 305 310 294 274 271 271 269 267 264 262 263 263 263 263 263 263 263 262 260 257 255 254 253 251 250
55 58 61 64 66 69 72 75 76 78 80 83 85 88 90 91 92 92 93 91 87 86 82 75 71 69 66 62 59 56 55 55 52 49 47 44 41 37 32 27 24 24 22 24 25 18 7 356 345 329 309 295 286 284 282 273 264 265 275 296 317 332 299 294 301 295 286 276 267 264 263 263 264 262 261 261 262 263 263 262 259 256 254 252 251
53 56 60 63 67 71 74 76 78 78 79 82 85 91 93 94 97 96 94 90 82 76 70 64 62 61 59 57 54 52 51 51 51 51 51 51 49 46 42 36 33 28 24 26 28 28 22 11 359 347 331 311 294 289 288 284 274 262 251 252 298 295 265 311 328 313 301 295 287 280 272 266 264 262 261 262 263 264 264 264 262 259 257 253 251
56 61 66 70 73 75 77 79 80 79 79 79 82 86 87 85 86 83 79 74 67 62 61 60 60 60 58 56 53 49 47 46 46 47 48 50 50 49 46 43 40 37 33 30 29 29 24 18 10 359 351 335 310 295 289 291 289 275 260 252 254 260 270 307 322 307 299 298 294 294 288 279 273 267 265 266 265 265 264 265 264 262 259 256 254
63 70 75 77 78 79 79 80 79 79 79 79 80 80 79 77 77 75 73 72 70 67 67 68 66 66 63 58 53 48 44 42 42 42 44 46 46 46 44 41 39 37 33 30 29 28 25 22 16 9 6 358 337 312 300 299 295 288 280 268 261 260 264 275 282 287 300 294 287 290 292 292 288 280 276 275 272 269 267 266 265 264 262 259 258
73 77 79 80 81 82 82 81 80 80 79 79 79 78 79 79 79 79 78 77 77 76 76 75 74 73 71 66 61 56 51 47 45 42 41 41 41 40 37 35 33 29 25 23 21 18 17 17 13 12 8 5 1 340 321 315 305 296 295 291 282 275 270 269 267 270 286 294 291 289 287 287 287 284 283 283 281 277 274 272 268 266 265 263 261
81 82 83 84 86 86 86 85 83 82 81 82 81 81 83 84 85 85 84 83 83 83 83 80 78 77 75 72 69 65 62 59 55 51 47 43 40 36 32 28 26 22 17 15 13 9 8 7 6 8 6 4 6 357 343 333 321 311 305 300 297 295 288 281 273 266 261 270 285 290 291 292 288 283 282 284 284 283 282 281 277 272 270 267 264
87 89 90 90 90 90 89 87 84 84 84 85 86 86 87 87 88 89 88 88 87 86 85 81 78 76 74 72 69 67 64 61 59 56 54 51 47 44 40 36 32 28 23 19 15 13 11 9 7 5 2 0 358 357 353 345 336 327 320 311 303 299 297 293 283 272 263 259 263 274 285 289 288 286 286 285 285 285 283 282 280 278 276 273 270
93 95 94 94 93 92 91 89 87 87 87 86 87 86 85 85 85 86 87 86 85 84 81 78 75 74 72 70 68 66 63 61 59 56 54 52 50 48 46 44 42 39 35 31 26 22 18 14 11 7 3 1 356 353 348 343 340 335 332 328 317 306 298 291 288 287 282 273 275 277 278 282 282 283 287 289 287 285 283 281 280 280 280 279 276